Hourly Data Report for February 08, 2020

All times are specified in Local Standard Time (LST). Add 1 hour to adjust for Daylight Saving Time where and when it is observed.

YARMOUTH A
NOVA SCOTIA
Current Station Operator: NAVCAN

43°49'37.000" N
66°05'17.000" W
42.90 m
8206495
71603
YQI

Download Data

Hourly Data (February 2020)
Hourly Data Report for February 8, 2020
TIME Temp Definition
°C
Dew Point Definition
°C
Rel Hum Definition
%
Wind Dir Definition
10's deg

Wind Spd Definition
km/h
Visibility Definition
km
Stn Press Definition
kPa
Hmdx Definition


Wind Chill Definition


Weather Definition


00:00 -0.7 -4.3 77 28 49 14.5 98.34   -9 LegendNANA
01:00 -0.4 -4.4 74 29 40 14.5 98.60   -8 LegendNANA
02:00 -1.9 -5.0 79 31 33 14.5 98.84   -9 Cloudy
03:00 -2.8 -6.3 77 31 40 14.5 99.03   -11 LegendNANA
04:00 -3.6 -7.4 75 31 40 14.5 99.26   -12 LegendNANA
05:00 -3.8 -8.6 70 31 37 11.3 99.52   -12 Snow Showers
06:00 -4.3 -8.3 73 32 36 8.1 99.75   -13 Snow Showers
07:00 -4.2 -8.8 71 30 35 8.1 99.98   -13 Snow
08:00 -4.2 -9.0 69 30 31 9.7 100.20   -12 Snow Showers
09:00 -4.5 -9.8 67 31 43 9.7 100.50   -14 Snow Showers
10:00 -3.8 -8.3 71 31 35 6.4 100.66   -12 Snow Showers
11:00 -4.1 -6.4 84 31 22 1.2 100.76   -11 Snow Showers
12:00 -3.6 -6.6 80 29 34 3.2 100.83   -12 Snow Showers
13:00 -3.4 -7.9 71 30 25 16.1 100.87   -10 Snow Showers
14:00 -3.4 -8.4 69 29 25 16.1 100.88   -10 Snow Showers
15:00 -3.0 -7.6 71 28 28 19.3 100.95   -10 Snow Showers
16:00 -3.2 -5.6 84 28 24 1.6 101.00   -10 Snow Showers
17:00 -3.4 -9.9 61 28 33 19.3 101.10   -11 Snow Showers
18:00 -3.6 -9.1 66 29 26 12.9 101.20   -11 Snow Showers
19:00 -4.7 -6.4 88 29 36 1.6 101.38   -13 Snow Showers
20:00 -3.8 -8.6 69 30 36 9.7 101.55   -12 Snow Showers
21:00 -4.9 -11.9 58 31 45 24.1 101.68   -14 LegendNANA
22:00 -5.9 -12.2 61 31 39 24.1 101.85   -15 LegendNANA
23:00 -6.8 -13.1 61 31 28 24.1 102.01   -15 Mostly Cloudy

Notes on Data Quality.

Legend

  • E = Estimated
  • M = Missing
  • NA = Not Available*
  • [empty] = Indicates an unobserved value
Date modified: